Location: Ahausen
(50.4985°N, 8.2722°E)
Time: 14:22:29
(UTC+00:00)

JY1SAT - Pass Details

Date: 08 July 2022
Orbit: 564 x 586 km, 97.6° (Epoch: 08 August)

Event Time Altitude Azimuth Distance (km) Brightness Sun altitude
Exits shadow 22:16:23 - 226° (SW) 2,500 ? -15.2°
Reaches altitude 10° 22:18:58 10° 252° (WSW) 1,913 ? -15.3°
Maximum altitude 22:20:29 12° 273° (W) 1,802 ? -15.4°
Drops below altitude 10° 22:22:00 10° 295° (WNW) 1,916 ? -15.5°
Sets 22:25:36 0° 328° (NNW) 2,819 ? -15.6°
